User: anonymous   Login
Location: Unspecified
(0.0000°N, 0.0000°E)
Time: 18:22:18
(UTC+02:00)
Language:

Cosmos 1072 Rocket - Orbit

View from above orbital plane
View from above orbital plane
View from above satellite
View from above satellite

Ground track
Ground track

The orbit data is extracted from the following two-line orbital elements,

1 11239U 79003B   16149.73592336 +.00000066 +00000-0 +51598-4 0  9998
2 11239 082.9390 013.9289 0041456 028.5363 037.1262 13.75793193874736
Epoch (UTC): 28 May 2016 17:39:43
Eccentricity: 0.0041456
inclination: 82.9390°
perigee height: 948 km
apogee height: 1009 km
right ascension of ascending node: 13.9289°
argument of perigee: 28.5363°
revolutions per day: 13.75793193
mean anomaly at epoch: 37.1262°
orbit number at epoch: 87473

The dashed part of the orbit path shows where the satellite is in the earth's shadow,  

DLR